TimeCST,TemperatureF,Dew PointF,Humidity,Sea Level PressureIn,VisibilityMPH,Wind Direction,Wind SpeedMPH,Gust SpeedMPH,PrecipitationIn,Events,Conditions,WindDirDegrees,DateUTC
12:15 AM,46.9,29.3,50,30.32,10.0,SW,5.8,-,N/A,,Clear,230,2013-02-01 06:15:00
12:35 AM,45.9,30.7,56,30.36,10.0,North,6.9,-,N/A,,Clear,350,2013-02-01 06:35:00
12:55 AM,47.5,29.1,49,30.36,10.0,NW,3.5,-,N/A,,Clear,310,2013-02-01 06:55:00
1:15 AM,46.6,29.1,51,30.36,10.0,Calm,Calm,-,N/A,,Clear,0,2013-02-01 07:15:00
1:35 AM,44.4,30.2,57,30.37,10.0,NNW,5.8,-,N/A,,Clear,330,2013-02-01 07:35:00
1:55 AM,45.0,29.7,55,30.38,10.0,North,6.9,-,N/A,,Clear,360,2013-02-01 07:55:00
2:15 AM,45.3,28.9,53,30.38,10.0,North,8.1,-,N/A,,Clear,10,2013-02-01 08:15:00
2:55 AM,44.4,28.9,55,30.38,10.0,NE,5.8,-,N/A,,Clear,50,2013-02-01 08:55:00
3:15 AM,44.2,29.1,55,30.39,10.0,NE,5.8,-,N/A,,Clear,40,2013-02-01 09:15:00
3:35 AM,43.7,29.5,57,30.39,10.0,NE,5.8,-,N/A,,Clear,40,2013-02-01 09:35:00
3:55 AM,42.8,30.0,61,30.39,10.0,NE,4.6,-,N/A,,Clear,40,2013-02-01 09:55:00
4:15 AM,42.1,30.7,64,30.41,10.0,NNE,6.9,-,N/A,,Clear,20,2013-02-01 10:15:00
4:55 AM,41.2,29.8,64,30.41,10.0,ENE,5.8,-,N/A,,Clear,60,2013-02-01 10:55:00
5:15 AM,40.6,30.2,66,30.42,10.0,NE,4.6,-,N/A,,Clear,50,2013-02-01 11:15:00
5:35 AM,40.1,30.6,69,30.42,10.0,NE,4.6,-,N/A,,Clear,50,2013-02-01 11:35:00
5:55 AM,39.4,30.7,71,30.43,10.0,NE,5.8,-,N/A,,Clear,50,2013-02-01 11:55:00
6:15 AM,38.8,30.0,71,30.44,10.0,NE,5.8,-,N/A,,Clear,40,2013-02-01 12:15:00
6:35 AM,38.3,27.1,64,30.45,10.0,NNE,6.9,-,N/A,,Clear,30,2013-02-01 12:35:00
6:55 AM,37.6,26.4,64,30.46,10.0,NE,8.1,-,N/A,,Clear,40,2013-02-01 12:55:00
7:15 AM,36.9,26.6,66,30.47,10.0,NE,8.1,-,N/A,,Clear,40,2013-02-01 13:15:00
7:35 AM,36.7,27.5,69,30.47,10.0,NE,8.1,-,N/A,,Clear,40,2013-02-01 13:35:00
7:55 AM,37.4,28.4,70,30.49,10.0,ENE,5.8,-,N/A,,Clear,60,2013-02-01 13:55:00
8:15 AM,38.3,29.3,70,30.49,10.0,ENE,11.5,16.1,N/A,,Clear,60,2013-02-01 14:15:00
8:35 AM,38.8,29.1,68,30.50,10.0,NE,9.2,-,N/A,,Clear,50,2013-02-01 14:35:00
8:55 AM,39.2,27.3,62,30.51,10.0,ENE,11.5,16.1,N/A,,Clear,60,2013-02-01 14:55:00
9:15 AM,40.3,25.0,54,30.51,10.0,ENE,8.1,-,N/A,,Clear,70,2013-02-01 15:15:00
9:35 AM,40.8,23.5,50,30.51,10.0,East,9.2,-,N/A,,Clear,100,2013-02-01 15:35:00
9:55 AM,41.7,22.3,46,30.51,10.0,East,9.2,-,N/A,,Clear,90,2013-02-01 15:55:00
10:15 AM,42.4,19.0,39,30.51,10.0,ENE,8.1,-,N/A,,Clear,60,2013-02-01 16:15:00
10:35 AM,43.2,18.7,38,30.50,10.0,East,9.2,-,N/A,,Clear,80,2013-02-01 16:35:00
10:55 AM,44.2,17.6,34,30.50,10.0,ENE,6.9,-,N/A,,Clear,70,2013-02-01 16:55:00
11:15 AM,45.1,15.4,30,30.50,10.0,NE,10.4,-,N/A,,Clear,50,2013-02-01 17:15:00
11:35 AM,46.0,14.7,28,30.48,10.0,ENE,10.4,-,N/A,,Clear,60,2013-02-01 17:35:00
11:55 AM,46.9,13.6,26,30.48,10.0,ESE,5.8,-,N/A,,Clear,120,2013-02-01 17:55:00
12:15 PM,47.3,14.0,26,30.46,10.0,ENE,8.1,-,N/A,,Clear,60,2013-02-01 18:15:00
12:35 PM,48.6,14.7,26,30.45,10.0,East,6.9,-,N/A,,Clear,80,2013-02-01 18:35:00
12:55 PM,49.6,14.7,25,30.43,10.0,East,6.9,-,N/A,,Clear,80,2013-02-01 18:55:00
1:15 PM,50.0,15.3,25,30.42,10.0,NE,5.8,16.1,N/A,,Clear,40,2013-02-01 19:15:00
1:35 PM,51.1,16.7,26,30.41,10.0,ENE,9.2,-,N/A,,Clear,70,2013-02-01 19:35:00
1:55 PM,51.1,16.3,25,30.41,10.0,ENE,10.4,-,N/A,,Clear,70,2013-02-01 19:55:00
2:15 PM,51.6,18.3,27,30.40,10.0,East,9.2,-,N/A,,Clear,90,2013-02-01 20:15:00
2:35 PM,51.3,17.6,26,30.39,10.0,East,8.1,-,N/A,,Clear,80,2013-02-01 20:35:00
2:55 PM,51.4,17.8,26,30.38,10.0,East,8.1,-,N/A,,Clear,100,2013-02-01 20:55:00
3:15 PM,50.7,17.2,27,30.39,10.0,ENE,10.4,-,N/A,,Clear,70,2013-02-01 21:15:00
3:35 PM,50.4,18.0,28,30.39,10.0,East,6.9,-,N/A,,Clear,80,2013-02-01 21:35:00
3:55 PM,50.9,19.0,28,30.39,10.0,ENE,4.6,-,N/A,,Clear,60,2013-02-01 21:55:00
4:15 PM,50.7,19.0,29,30.39,10.0,East,8.1,-,N/A,,Clear,80,2013-02-01 22:15:00
4:35 PM,50.4,20.3,31,30.38,10.0,SE,6.9,-,N/A,,Clear,130,2013-02-01 22:35:00
4:55 PM,49.1,21.0,33,30.38,10.0,ESE,8.1,-,N/A,,Clear,110,2013-02-01 22:55:00
5:15 PM,47.5,21.2,35,30.37,10.0,East,3.5,-,N/A,,Clear,90,2013-02-01 23:15:00
5:35 PM,45.3,22.3,40,30.37,10.0,East,4.6,-,N/A,,Clear,100,2013-02-01 23:35:00
5:55 PM,43.7,23.9,46,30.37,10.0,East,3.5,-,N/A,,Clear,100,2013-02-01 23:55:00
6:15 PM,42.8,23.9,47,30.36,10.0,ESE,3.5,-,N/A,,Clear,110,2013-02-02 00:15:00
6:35 PM,42.1,23.7,48,30.37,10.0,Calm,Calm,-,N/A,,Clear,0,2013-02-02 00:35:00
6:55 PM,41.0,24.3,51,30.37,10.0,Calm,Calm,-,N/A,,Clear,0,2013-02-02 00:55:00
7:15 PM,40.1,24.8,54,30.36,10.0,Calm,Calm,-,N/A,,Clear,0,2013-02-02 01:15:00
7:35 PM,39.4,26.6,60,30.36,10.0,Calm,Calm,-,N/A,,Clear,0,2013-02-02 01:35:00
7:55 PM,38.7,27.1,63,30.35,10.0,Calm,Calm,-,N/A,,Clear,0,2013-02-02 01:55:00
8:15 PM,37.8,26.6,64,30.35,10.0,Calm,Calm,-,N/A,,Clear,0,2013-02-02 02:15:00
8:35 PM,37.9,26.2,63,30.34,10.0,East,3.5,-,N/A,,Clear,90,2013-02-02 02:35:00
8:55 PM,37.6,25.9,63,30.35,10.0,Calm,Calm,-,N/A,,Clear,0,2013-02-02 02:55:00
9:15 PM,37.2,25.5,63,30.35,10.0,East,3.5,-,N/A,,Clear,100,2013-02-02 03:15:00
9:35 PM,37.6,25.2,61,30.35,10.0,East,3.5,-,N/A,,Clear,100,2013-02-02 03:35:00
9:55 PM,37.4,25.2,61,30.35,10.0,SE,3.5,-,N/A,,Clear,130,2013-02-02 03:55:00
10:15 PM,37.4,25.3,62,30.35,10.0,SE,4.6,-,N/A,,Clear,130,2013-02-02 04:15:00
10:35 PM,37.4,25.0,61,30.35,10.0,Calm,Calm,-,N/A,,Clear,0,2013-02-02 04:35:00
10:55 PM,36.5,25.3,64,30.35,10.0,Calm,Calm,-,N/A,,Clear,0,2013-02-02 04:55:00
11:15 PM,36.1,25.5,65,30.35,10.0,SE,3.5,-,N/A,,Clear,140,2013-02-02 05:15:00
11:35 PM,36.1,25.7,66,30.34,10.0,SE,4.6,-,N/A,,Clear,140,2013-02-02 05:35:00
11:55 PM,36.1,25.7,66,30.33,10.0,SSE,4.6,-,N/A,,Clear,150,2013-02-02 05:55:00